Location: Newark
(40.3500°N, 15.2333°E)
Time: 01:12:43
(UTC+00:00)

Vanguard 1 - Pass Details

Date: 01 February 2020
Orbit: 649 x 3834 km, 34.3° (Epoch: 27 February)

Event Time Altitude Azimuth Distance (km) Brightness Sun altitude
Rises 15:19:07 0° 257° (WSW) 3,465 14.5 8.9°
Reaches altitude 10° 15:22:00 10° 250° (WSW) 2,288 14.3 8.5°
Maximum altitude 15:26:36 40° 180° (S) 959 10.5 7.7°
Drops below altitude 10° 15:30:46 10° 110° (ESE) 2,069 11.4 7.0°
Sets 15:33:15 0° 102° (ESE) 3,085 12.2 6.6°
